Flag for Germany Weather past 2 weeks in Konstanz, Baden-Württemberg, Germany

Now
58 °F

Partly sunny.


Feels Like: 58 °F
Forecast: 36 / 65 °F
Wind: 1 mph from East

Location: Konstanz


UV Index: 0 (Low)

Visibility: 16 mi


Pressure: 29.63 "Hg

Humidity: 60%

Dew point: 44 °F

Location of KonstanzLocation

Historic Weather in Konstanz

°F

Konstanz temperature yesterday

Maximum temperature yesterday: 47 °F (at 7:00 PM)
Minimum temperature yesterday: 36 °F (at 12:00 AM)
Average temperature yesterday: 42 °F

Past Weeks' High & Low Weather Summary

 TemperatureHumidityPressure
High69 °F (Apr 11, 5:00 PM)98% (Apr 7, 8:00 AM)30.37 "Hg (Apr 7, 8:00 AM)
Low34 °F (Apr 18, 7:00 PM)21% (Apr 17, 6:00 PM)29.62 "Hg (Apr 20, 6:00 PM)
Average51 °F66%30.08 "Hg
* Reported Apr 5 7:00 PM — Apr 20 7:00 PM, Konstanz, Weather by CustomWeather, © 2014

Note: Actual official high and low records may vary slightly from our data, if they occured in-between our weather recording intervals... More about our weather records

Advertising

Historic Weather Conditions — Data for Previous 24 hours

 ConditionsComfort  
Time TempWeatherWind HumidityBarometerVisibility
7:00 PM
Apr 20
58 °FPartly sunny.1 mph60%29.63 "Hg16 mi
6:00 PM61 °FScattered clouds.2 mph52%29.62 "Hg16 mi
5:00 PM60 °FPassing clouds.2 mph54%29.64 "Hg15 mi
4:00 PM59 °FPassing clouds.1 mph56%29.66 "Hg16 mi
3:00 PM58 °FScattered clouds.3 mph52%29.67 "Hg16 mi
2:00 PM53 °FScattered clouds.2 mph66%29.70 "Hg14 mi
1:00 PM52 °FPartly sunny.2 mph68%29.72 "Hg12 mi
12:00 PM50 °FOvercast.1 mph76%29.73 "Hg11 mi
11:00 AM48 °FOvercast.2 mph80%29.74 "Hg12 mi
10:00 AM47 °FOvercast.2 mph81%29.74 "Hg11 mi
9:00 AM45 °FOvercast.1 mph84%29.75 "Hg9 mi
8:00 AM44 °FOvercast.1 mph85%29.74 "Hg11 mi
7:00 AM44 °FOvercast.2 mph88%29.75 "Hg8 mi
6:00 AM43 °FOvercast.2 mph92%29.73 "Hg5 mi
5:00 AM42 °FOvercast.2 mph93%29.74 "Hg6 mi
4:00 AM41 °FFog.1 mph96%29.75 "Hg4 mi
3:00 AM42 °FFog.1 mph96%29.75 "Hg4 mi
2:00 AM43 °FPassing clouds.2 mph93%29.76 "Hg6 mi
1:00 AM44 °FOvercast.2 mph90%29.77 "Hg8 mi
12:00 AM46 °FOvercast.1 mph87%29.78 "Hg11 mi
11:00 PM
Apr 19
46 °FOvercast.1 mph84%29.79 "Hg12 mi
10:00 PM47 °FOvercast.1 mph83%29.80 "Hg13 mi
9:00 PM47 °FOvercast.1 mph81%29.80 "Hg14 mi
8:00 PM47 °FOvercast.2 mph78%29.80 "Hg16 mi
Weather by CustomWeather, © 2014

See weather overview